Wind_Speed
17 17 17 18 17 17 18 18 18 19 19 20 20 21 21 21 22 23 23 24 24 24 25 26 27 28 28 29 29 30 31 32 33 33 33 34 34 34
18 19 19 19 20 20 19 20 20 20 21 22 23 23 23 24 24 25 26 26 26 27 28 29 30 31 31 31 32 33 34 35 35 36 36 37 37 38
20 20 20 21 21 21 21 21 21 22 22 23 24 24 25 25 26 27 28 29 29 30 31 32 32 33 33 34 35 36 37 37 38 39 39 40 41 41
20 21 20 21 21 22 21 21 21 22 23 24 25 26 26 27 28 29 30 31 31 32 33 34 35 36 36 37 38 39 40 40 41 42 43 44 44 45
19 20 21 22 21 22 21 22 23 24 25 26 27 28 28 29 30 31 32 33 34 35 36 37 38 38 39 40 41 41 42 43 44 45 46 47 47 48
19 20 22 22 22 22 23 24 25 26 27 28 28 29 30 31 32 33 34 35 36 37 37 38 39 40 42 43 43 44 45 46 46 47 48 49 50 51
21 21 21 22 22 23 24 25 27 28 28 29 30 30 32 33 33 35 35 36 37 38 39 40 42 43 45 46 47 47 49 49 50 51 51 52 53 54
21 22 23 24 24 25 26 27 28 29 30 31 31 32 33 34 35 36 37 38 39 40 42 44 46 47 48 49 50 51 52 53 53 54 55 57 57 58
21 22 24 25 26 27 27 28 29 29 30 32 32 33 34 35 36 37 38 39 41 42 44 45 47 48 49 50 51 52 53 54 55 56 58 59 60 61
22 24 24 25 26 27 27 28 29 30 30 31 32 33 35 36 37 38 39 40 42 43 45 46 47 49 50 52 53 54 55 55 56 57 58 59 60 61
23 24 25 26 27 28 28 28 30 30 30 31 32 33 34 36 38 39 40 41 42 43 45 46 47 48 49 51 52 54 55 56 57 58 59 59 60 60
24 24 25 26 26 27 28 29 30 31 31 31 32 34 36 36 37 39 40 41 42 44 45 46 47 48 48 50 52 54 55 57 58 59 59 60 60 60
24 24 25 26 27 27 29 30 30 30 31 32 33 34 35 36 37 38 40 41 42 43 44 44 45 46 47 48 50 51 53 54 55 56 56 56 57 57
25 26 27 27 28 28 29 29 29 30 31 32 33 34 35 36 37 38 39 40 41 41 42 43 44 45 46 46 47 48 49 50 50 50 50 51 51 52
25 26 27 27 28 29 28 28 30 30 31 32 33 34 35 36 38 38 39 39 39 40 41 41 42 43 43 43 44 44 44 45 45 45 45 46 46 47
25 25 25 26 28 28 28 29 29 30 31 32 33 34 35 36 36 36 36 37 37 38 39 40 40 40 40 41 41 42 42 41 41 41 42 42 42 42
25 25 26 27 28 28 28 28 29 30 31 32 33 34 34 34 34 33 34 34 35 36 37 37 38 38 39 39 39 39 39 38 38 38 39 39 39 39
25 26 27 27 27 27 28 29 30 31 31 32 32 32 31 31 31 32 33 33 33 34 35 35 36 37 38 37 37 37 37 37 37 37 37 36 36 35
24 25 26 26 27 27 28 29 30 30 30 30 30 30 30 30 31 31 32 32 32 33 34 34 35 35 35 35 35 35 35 34 34 34 34 34 33 31
25 25 26 26 26 27 28 29 29 29 29 29 29 29 30 30 30 31 30 31 31 32 32 33 34 34 33 33 33 33 33 33 32 32 31 31 30 29
26 26 26 26 26 27 28 28 28 28 28 28 28 29 29 29 29 29 29 30 30 31 31 32 33 33 33 33 32 32 32 32 32 31 29 28 27 26
26 26 26 26 27 27 27 27 28 28 28 28 28 28 28 28 28 28 29 29 30 30 31 31 32 32 32 31 31 30 30 31 31 31 30 29 27 26
25 25 26 27 27 27 27 28 28 28 28 28 28 28 28 27 28 28 28 28 29 29 29 30 30 31 30 30 30 30 30 29 29 29 29 29 28 27
Wind_Direction
259 258 259 259 262 266 266 264 266 267 267 269 271 271 272 275 277 274 276 275 275 276 277 275 275 276 277 277 278 277 277 276 276 276 276 275 274 273
261 259 260 261 262 266 267 267 267 268 269 270 271 272 273 275 276 274 275 276 277 276 277 277 276 276 277 277 277 277 277 276 276 276 276 275 274 273
261 262 263 264 265 266 267 267 267 269 270 273 272 272 273 275 275 275 276 278 278 277 276 276 277 278 278 278 277 276 277 277 276 276 275 275 275 274
263 263 264 265 267 268 268 269 270 271 273 274 274 274 275 277 277 277 278 278 278 277 278 278 279 279 280 280 280 280 278 278 278 277 276 276 276 275
263 264 264 266 268 268 270 272 273 274 275 276 277 276 275 276 276 277 279 279 280 279 279 280 280 280 279 280 280 280 279 279 279 278 277 276 275 275
264 264 265 266 269 269 272 276 277 276 277 278 278 277 277 278 278 280 281 281 281 281 281 281 282 281 280 280 280 280 279 279 279 279 278 277 276 276
267 266 266 267 270 271 275 277 279 279 279 278 278 277 279 281 282 283 284 284 284 283 283 282 283 283 282 281 280 280 280 279 279 279 278 277 277 276
270 270 269 271 272 273 275 278 280 281 281 279 279 279 281 282 283 284 285 286 286 285 284 284 284 283 283 282 282 281 280 279 279 278 278 277 277 277
271 272 273 275 275 276 278 280 283 284 283 282 282 283 283 283 285 285 285 286 286 286 286 286 286 285 285 285 283 282 281 280 280 279 279 279 278 278
276 277 277 278 279 281 282 284 286 287 286 286 285 285 284 285 285 286 287 288 287 287 288 288 288 288 287 286 285 284 284 283 282 282 282 281 280 280
277 278 280 281 282 282 284 286 288 288 289 289 289 289 288 287 287 288 290 290 290 290 291 291 291 290 289 288 288 288 287 287 286 285 284 283 282 281
280 281 281 283 282 284 286 287 289 290 290 291 291 291 291 291 291 291 292 292 293 293 293 293 292 292 292 292 292 291 291 290 289 288 287 286 285 283
281 281 283 283 283 286 289 289 289 289 290 291 292 293 293 293 292 292 293 294 294 294 294 294 294 295 295 296 295 295 294 293 292 291 290 289 288 286
282 283 286 286 286 287 290 291 291 292 292 293 294 295 296 296 297 297 297 297 297 297 298 298 299 300 300 299 299 299 299 298 296 296 295 294 293 291
284 286 287 288 288 289 290 291 293 294 295 296 297 298 299 299 299 299 300 301 301 301 301 302 303 303 304 304 304 303 302 301 301 301 300 299 298 296
284 287 289 290 291 293 293 294 295 296 297 299 300 301 301 301 302 303 303 304 305 304 305 306 307 308 308 308 307 307 307 306 305 304 304 304 303 301
288 289 291 292 293 294 295 297 298 299 299 300 301 302 302 303 304 305 306 307 307 308 308 309 310 311 311 311 312 312 311 311 310 309 309 308 307 306
290 290 291 293 294 294 296 297 298 299 299 301 302 303 304 304 305 307 308 308 309 310 311 312 314 315 316 317 316 316 316 315 313 313 313 313 313 311
292 293 293 293 294 294 297 298 299 300 301 303 304 305 305 306 307 309 310 311 312 313 314 316 317 318 318 319 319 319 319 319 318 318 318 319 319 318
291 292 292 293 294 296 297 298 299 301 302 303 304 305 305 306 308 310 312 314 315 316 318 319 320 321 321 322 322 322 323 324 324 324 324 324 324 324
292 293 293 294 295 296 297 299 301 302 302 303 305 305 306 307 309 311 313 315 317 319 320 322 323 324 325 325 326 327 327 328 328 328 328 329 329 328
292 293 293 294 295 297 299 301 302 303 304 304 305 305 307 308 310 312 314 316 318 320 321 323 325 327 328 328 329 329 329 330 331 331 331 332 333 332
292 293 294 295 296 299 301 302 303 303 303 304 306 307 308 310 311 313 315 317 319 321 323 325 327 328 329 331 331 331 331 332 333 333 333 334 334 334
Height
5871 5871 5872 5872 5872 5872 5872 5872 5872 5872 5872 5871 5871 5870 5869 5868 5867 5866 5865 5863 5862 5861 5860 5858 5857 5856 5854 5853 5852 5850 5849 5847 5846 5844 5843 5842 5840 5839
5867 5867 5867 5867 5867 5867 5867 5867 5867 5867 5866 5866 5865 5864 5864 5863 5861 5860 5858 5857 5856 5854 5852 5851 5849 5848 5846 5845 5843 5842 5840 5838 5837 5835 5834 5832 5831 5829
5862 5862 5862 5862 5862 5862 5862 5862 5861 5861 5860 5860 5859 5858 5857 5856 5855 5853 5852 5850 5848 5846 5845 5843 5841 5839 5838 5836 5834 5832 5830 5828 5827 5825 5823 5822 5820 5819
5857 5857 5857 5857 5857 5856 5856 5856 5855 5855 5854 5853 5852 5851 5850 5849 5848 5846 5844 5842 5840 5838 5836 5834 5832 5830 5828 5826 5824 5822 5820 5817 5815 5813 5811 5810 5808 5806
5851 5851 5851 5851 5851 5850 5850 5850 5849 5848 5847 5846 5845 5844 5842 5841 5839 5838 5835 5833 5831 5829 5827 5825 5822 5820 5817 5815 5813 5810 5808 5806 5804 5801 5799 5796 5794 5792
5846 5846 5845 5845 5845 5844 5844 5843 5842 5841 5840 5839 5837 5836 5834 5832 5831 5829 5826 5824 5822 5819 5817 5814 5812 5809 5806 5803 5801 5798 5796 5793 5790 5787 5785 5782 5780 5778
5840 5840 5840 5839 5839 5838 5838 5837 5836 5834 5833 5831 5829 5828 5826 5824 5822 5820 5817 5815 5812 5809 5806 5804 5801 5798 5794 5791 5788 5785 5782 5779 5776 5773 5770 5767 5764 5762
5835 5834 5834 5833 5833 5832 5831 5830 5828 5827 5825 5823 5821 5819 5817 5815 5812 5810 5808 5805 5802 5799 5796 5792 5789 5785 5781 5778 5774 5771 5768 5764 5761 5758 5754 5751 5748 5745
5829 5829 5828 5827 5826 5825 5824 5822 5820 5819 5817 5815 5813 5811 5808 5806 5803 5800 5797 5794 5791 5787 5784 5780 5776 5772 5768 5764 5760 5756 5752 5749 5745 5741 5738 5734 5730 5726
5823 5822 5821 5820 5819 5818 5816 5814 5813 5811 5808 5806 5804 5801 5799 5796 5793 5790 5787 5783 5779 5775 5772 5768 5763 5758 5754 5749 5745 5741 5736 5732 5728 5723 5719 5715 5711 5707
5817 5816 5815 5814 5812 5810 5809 5807 5804 5802 5800 5797 5795 5792 5789 5786 5783 5779 5775 5772 5768 5764 5759 5755 5750 5745 5739 5734 5730 5725 5720 5715 5710 5705 5700 5696 5692 5688
5811 5809 5808 5806 5805 5803 5801 5799 5797 5794 5791 5789 5786 5782 5779 5776 5772 5768 5764 5760 5756 5752 5747 5742 5737 5732 5726 5720 5715 5709 5703 5698 5692 5687 5682 5677 5672 5668
5803 5802 5800 5799 5797 5795 5793 5790 5788 5785 5783 5780 5776 5773 5769 5766 5762 5758 5754 5749 5745 5740 5735 5730 5724 5719 5713 5707 5701 5694 5688 5682 5676 5670 5664 5658 5653 5648
5796 5795 5793 5791 5789 5787 5784 5782 5779 5777 5774 5770 5767 5763 5759 5756 5751 5747 5742 5738 5733 5728 5722 5717 5712 5706 5700 5694 5688 5681 5674 5667 5661 5655 5648 5642 5636 5631
5789 5787 5785 5783 5781 5779 5776 5774 5771 5768 5765 5761 5757 5754 5749 5745 5741 5736 5731 5727 5721 5716 5711 5706 5700 5694 5688 5682 5676 5669 5662 5655 5648 5642 5635 5629 5623 5617
5782 5780 5778 5776 5774 5771 5768 5765 5762 5759 5756 5752 5748 5744 5740 5736 5731 5726 5722 5717 5712 5707 5701 5695 5690 5684 5678 5671 5665 5657 5651 5644 5638 5631 5624 5617 5611 5604
5775 5773 5771 5768 5766 5763 5760 5757 5754 5750 5747 5743 5739 5735 5731 5727 5722 5718 5713 5708 5703 5698 5692 5686 5680 5674 5668 5662 5655 5648 5641 5634 5628 5621 5615 5608 5601 5594
5768 5765 5763 5760 5758 5755 5752 5749 5746 5742 5738 5735 5730 5726 5722 5718 5714 5710 5705 5700 5695 5690 5684 5678 5672 5666 5659 5652 5646 5639 5632 5626 5619 5612 5605 5599 5592 5585
5760 5758 5755 5753 5750 5747 5744 5741 5737 5734 5730 5726 5722 5719 5715 5711 5706 5702 5697 5692 5687 5682 5676 5671 5665 5658 5652 5645 5638 5631 5625 5618 5611 5604 5598 5591 5585 5579
5752 5750 5748 5745 5742 5739 5736 5733 5729 5726 5722 5719 5715 5711 5707 5703 5699 5694 5690 5685 5680 5674 5669 5663 5657 5651 5645 5638 5631 5624 5618 5611 5605 5598 5592 5585 5579 5572
5745 5742 5740 5737 5735 5732 5729 5725 5722 5718 5714 5711 5707 5703 5700 5696 5691 5687 5682 5678 5673 5667 5662 5656 5650 5644 5638 5631 5625 5618 5612 5605 5598 5592 5586 5581 5575 5569
5738 5735 5732 5730 5727 5724 5721 5717 5714 5711 5707 5704 5700 5696 5692 5688 5684 5680 5676 5671 5666 5661 5655 5650 5644 5638 5632 5626 5619 5613 5607 5601 5594 5587 5580 5575 5569 5564
5730 5728 5725 5722 5719 5716 5713 5710 5707 5703 5700 5696 5693 5689 5685 5681 5677 5673 5669 5664 5660 5655 5649 5644 5638 5632 5626 5620 5614 5608 5602 5596 5590 5584 5577 5571 5565 5560